Flag for Netherlands Weather past 2 weeks in Amersfoort, Netherlands

Now
61 °F

Broken clouds.


Feels Like: 61 °F
Forecast: 42 / 50 °F
Wind: 16 mph from Southwest

Location: Deelen


UV Index: 3 (Moderate)

Visibility: N/A


Pressure: 29.98 "Hg

Humidity: 39%

Dew point: 36 °F

Location of AmersfoortLocation

Historic Weather in Amersfoort

°F

Amersfoort temperature yesterday

Maximum temperature yesterday: 59 °F (at 4:55 PM)
Minimum temperature yesterday: 27 °F (at 6:55 AM)
Average temperature yesterday: 45 °F

Past Weeks' High & Low Weather Summary

 TemperatureHumidityPressure
High73 °F (Apr 3, 4:25 PM)100% (Apr 5, 5:25 AM)30.45 "Hg (Apr 5, 5:25 AM)
Low27 °F (Apr 16, 6:55 AM)34% (Apr 17, 2:25 PM)29.59 "Hg (Apr 3, 11:55 AM)
Average51 °F74%30.03 "Hg
* Reported Apr 2 4:25 PM — Apr 17 4:55 PM, Amersfoort, Weather by CustomWeather, © 2014

Note: Actual official high and low records may vary slightly from our data, if they occured in-between our weather recording intervals... More about our weather records

Advertising

Historic Weather Conditions — Data for Previous 24 hours

 ConditionsComfort  
Time TempWeatherWind HumidityBarometerVisibility
4:55 PM
Apr 17
61 °FBroken clouds.16 mph39%29.98 "HgN/A
4:25 PM63 °FPartly sunny.16 mph37%29.98 "HgN/A
3:55 PM63 °FPassing clouds.16 mph34%30.01 "HgN/A
3:25 PM61 °FOvercast.14 mph39%30.04 "HgN/A
3:00 PM61 °FOvercast.18 mph39%30.04 "HgN/A
2:55 PM63 °FScattered clouds.16 mph39%30.04 "HgN/A
2:25 PM63 °FPassing clouds.17 mph34%30.07 "HgN/A
1:55 PM61 °FSunny.16 mph36%30.07 "HgN/A
1:25 PM59 °FPartly sunny.17 mph39%30.09 "HgN/A
12:55 PM59 °FScattered clouds.15 mph42%30.12 "HgN/A
12:25 PM57 °FOvercast.15 mph44%30.15 "HgN/A
11:55 AM55 °FOvercast.14 mph47%30.15 "HgN/A
11:25 AM55 °FPartly sunny.15 mph47%30.18 "HgN/A
10:55 AM54 °FOvercast.13 mph47%30.18 "HgN/A
10:25 AM52 °FOvercast.13 mph50%30.18 "HgN/A
9:55 AM52 °FPartly sunny.13 mph50%30.18 "HgN/A
9:25 AM50 °FOvercast.13 mph54%30.21 "HgN/A
8:55 AM48 °FOvercast.12 mph58%30.21 "HgN/A
8:25 AM48 °FPassing clouds.12 mph58%30.21 "HgN/A
7:55 AM46 °FPassing clouds.12 mph57%30.21 "HgN/A
7:25 AM43 °FPassing clouds.8 mph71%30.21 "HgN/A
6:55 AM41 °FPassing clouds.7 mph76%30.21 "HgN/A
6:25 AM41 °FPassing clouds.9 mph70%30.21 "HgN/A
5:55 AM41 °FPassing clouds.9 mph76%30.24 "HgN/A
5:25 AM41 °FClear.8 mph76%30.24 "HgN/A
4:55 AM41 °FClear.6 mph76%30.24 "HgN/A
4:25 AM43 °FPassing clouds.5 mph71%30.24 "HgN/A
3:55 AM43 °FPassing clouds.6 mph71%30.24 "HgN/A
3:25 AM41 °FClear.5 mph76%30.27 "HgN/A
2:55 AM43 °FPassing clouds.5 mph71%30.27 "HgN/A
2:25 AM41 °FPassing clouds.3 mph76%30.27 "HgN/A
1:55 AM43 °FPassing clouds.3 mph71%30.30 "HgN/A
1:25 AM43 °FClear.3 mph71%30.30 "HgN/A
12:55 AM43 °FPassing clouds.3 mph66%30.30 "HgN/A
12:25 AM41 °FPassing clouds.2 mph70%30.30 "HgN/A
11:55 PM
Apr 16
41 °FClear.3 mph70%30.30 "HgN/A
10:55 PM41 °FPassing clouds.5 mph70%30.33 "HgN/A
10:25 PM43 °FClear.5 mph66%30.33 "HgN/A
9:55 PM43 °FPassing clouds.5 mph66%30.33 "HgN/A
9:25 PM45 °FPassing clouds.5 mph61%30.33 "HgN/A
8:55 PM46 °FSunny.5 mph62%30.33 "HgN/A
8:25 PM52 °FSunny.3 mph47%30.33 "HgN/A
7:55 PM55 °FSunny.7 mph38%30.33 "HgN/A
7:25 PM57 °FSunny.8 mph36%30.33 "HgN/A
6:55 PM57 °FSunny.7 mph36%30.33 "HgN/A
6:25 PM57 °FSunny.8 mph39%30.36 "HgN/A
5:55 PM59 °FPassing clouds.8 mph36%30.36 "HgN/A
5:25 PM57 °FPassing clouds.9 mph36%30.36 "HgN/A
Weather by CustomWeather, © 2014

See weather overview